Content
SEND FEEDBACK

Daily
Averages
Monthly
Summary
United States of America

ASHEVILLE, NORTH CAROLINA


Home > North America > United States > North Carolina
Elevation: 682 meters     Latitude: 35 36N     Longitude: 082 32W

WEATHER
 
SELECT A DAY
Number of Records: 226,296;   Date Range: 1/1/95 - 8/30/14
 
SHARE

PRINT THIS DATA

[ ← Previous Day ]
WEATHER ALMANAC - 9 JANUARY, 2013
[ Next Day → ]
[ °F ]   °C
Weather ElementAverageHighLow
Temperature8.1 °C10 °C (3:54 pm)6.7 °C (12:54 am)
Dewpoint6.7 °C8 °C (9:43 am)3.9 °C (12:54 am)
Humidity91 %100 % (9:05 am)81 % (1:13 am)
Barometer1030.1 hPa1032.2 hPa (11:54 pm)1028.1 hPa (4:54 am)
Wind Speed6.4 km/h13 km/h (7:29 am)
Weather ElementAverage
Visibility11.1 km
Wind DirectionSW (230.5 °)

Weather ElementTotal
Precipitation---
Heating Degree Days10 (Base 18.3)
Averaged from 38 records on 9 January, 2013
WEATHER CONDITIONS BREAKOUT
WIND DIRECTION BREAKOUT
WEATHER BY HOUR - 9 JANUARY, 2013
[ °F ]   °C
Local TimeTemperatureDewpointHumidityBarometerVisibilityWind DirectionWind SpeedGust SpeedPrecipitationEventsConditions
12:54 AM6.7 °C3.9 °C82 %1028.8 hPa16.1 kmCalmOvercast
1:13 AM7 °C4 °C81 %1028.8 hPa16.1 kmCalmOvercast
1:54 AM6.7 °C4.4 °C85 %1028.8 hPa16.1 kmCalmOvercast
2:54 AM7.2 °C5 °C86 %1028.4 hPa16.1 kmCalmOvercast
3:54 AM7.8 °C5.6 °C86 %1028.4 hPa16.1 kmCalmOvercast
4:54 AM7.8 °C6.1 °C89 %1028.1 hPa16.1 kmCalmOvercast
5:54 AM7.2 °C5.6 °C90 %1028.4 hPa16.1 kmNNW (340°)7.4 km/hOvercast
6:54 AM7.2 °C5 °C86 %1029.1 hPa14.5 kmNNW (330°)11.1 km/hOvercast
7:29 AM7 °C5 °C87 %1029.5 hPa12.9 kmNNW (340°)13 km/hOvercast
7:54 AM6.7 °C5.6 °C93 %1030.1 hPa1.6 kmNorth (350°)11.1 km/hOvercast
8:01 AM7 °C6 °C93 %1030.1 hPa1.6 kmNorth (350°)9.3 km/hOvercast
8:52 AM7 °C6 °C93 %1030.5 hPa0.8 kmNNW (340°)9.3 km/hFogFog
8:54 AM6.7 °C6.1 °C96 %1031.2 hPa0.8 kmNNW (340°)11.1 km/hFogFog
9:05 AM7 °C7 °C100 %1030.8 hPa0.3 kmNNW (330°)13 km/hFogFog
9:25 AM7 °C7 °C100 %1030.8 hPa0.8 kmNNW (330°)11.1 km/hFogFog
9:35 AM8 °C7 °C93 %1030.8 hPa0.3 kmNorth (350°)5.6 km/hFogFog
9:43 AM8 °C8 °C100 %1030.8 hPa1.6 kmCalmMist
9:54 AM8.3 °C7.8 °C97 %1031.2 hPa1.6 kmNW (310°)9.3 km/hOvercast
10:09 AM8 °C7 °C93 %1031.2 hPa1.3 kmNorth (350°)11.1 km/hOvercast
10:22 AM8 °C8 °C100 %1031.2 hPa1.6 kmNorth (360°)5.6 km/hOvercast
10:33 AM8 °C8 °C100 %1031.2 hPa4.8 kmCalmOvercast
10:46 AM8 °C7 °C93 %1031.2 hPa11.3 kmNW (320°)5.6 km/hOvercast
10:54 AM8.3 °C7.8 °C97 %1031.2 hPa12.9 kmCalmOvercast
11:41 AM9 °C8 °C93 %1030.8 hPa14.5 kmNNW (330°)7.4 km/hOvercast
11:54 AM8.9 °C7.2 °C89 %1030.5 hPa14.5 kmNNW (340°)7.4 km/hOvercast
12:11 PM9 °C7 °C87 %1030.5 hPa16.1 kmNW (320°)9.3 km/hMostly Cloudy
12:54 PM9.4 °C7.8 °C90 %1029.8 hPa16.1 kmNNW (330°)9.3 km/hMostly Cloudy
1:54 PM9.4 °C7.8 °C90 %1029.5 hPa16.1 kmNNW (330°)13 km/h0 mmOvercast
2:54 PM9.4 °C7.8 °C90 %1029.5 hPa16.1 kmNNW (340°)9.3 km/hOvercast
3:54 PM10 °C7.8 °C86 %1029.5 hPa16.1 kmNNW (330°)13 km/hOvercast
4:54 PM10 °C7.8 °C86 %1029.8 hPa16.1 kmNorth (350°)5.6 km/hOvercast
5:54 PM9.4 °C7.2 °C86 %1030.1 hPa16.1 kmNNW (340°)7.4 km/hMostly Cloudy
6:54 PM8.9 °C7.2 °C89 %1029.8 hPa16.1 kmCalmPartly Cloudy
7:54 PM8.9 °C7.2 °C89 %1030.5 hPa16.1 kmNNW (340°)9.3 km/hClear
8:54 PM8.9 °C7.2 °C89 %1030.8 hPa16.1 kmNorth (360°)13 km/hClear
9:54 PM8.9 °C7.2 °C89 %1031.2 hPa16.1 kmNW (310°)9.3 km/hClear
10:54 PM8.3 °C7.2 °C93 %1031.8 hPa16.1 kmCalmClear
11:54 PM7.8 °C6.7 °C93 %1032.2 hPa16.1 kmCalmPartly Cloudy
Hourly data recorded from KAVL, located 0 kilometers away from Asheville, North Carolina







STORIES FROM OUR PARTNERS